Амударья

Узбекистан     38°46′30″N   65°51′12″E
темп.,
°C
ветер,
м/с
пор.,
м/с
влажн.,
%
обл.,
%
осадки,
мм/ч
давл.,
гПа
погр.,
м
27 февраля, сб
сб2723:00−3ссз23250 0.0 103048
02:00−3ссв122572 0.0 102953
05:00−2с112586 0.0 102988
08:00−1юв1123100 0.0 102993
11:00+3юз242380 0.0 1030686
14:00+7юз44240 0.0 10281101
17:00+7юз23230 0.0 10271055
20:00+3сз11350 0.0 102822
28 февраля, вс
вс2823:00+2св12360 0.0 102722
02:00+2всв34350 0.0 102530
05:00+1всв45450 0.0 102371
08:00+2всв35430 0.0 102390
11:00+10св45260 0.0 1021440
14:00+14ссв22190 0.0 1018893
17:00+14ссв22190 0.0 1017907
20:00+10св34310 0.0 101826
1 марта, пн
пн123:00+8в23364 0.0 101822
02:00+8вюв233587 0.0 101823
05:00+7вюв343394 0.0 101727
08:00+8вюв232628 0.0 101825
11:00+18юз481514 0.0 1018913
14:00+21ююз79130 0.0 10171990
17:00+20юз78160 0.0 10161395
20:00+15ю342334 0.0 101840
2 марта, вт
вт223:00+13зсз222768 0.0 101923
02:00+12ссв3428100 0.0 101938
05:00+12св3431100 0.0 101839
08:00+12св2332100 0.0 102024
11:00+16сз2221100 0.0 1020269
14:00+18сз5518100 0.0 1019763
17:00+17сз4424100 0.0 1019976
20:00+13с463997 0.0 1020133
3 марта, ср
ср323:00+12ссв235099 0.0 102047
02:00+10вюв125898 0.0 102023
05:00+9с235399 0.0 101922
08:00+10ссз3541100 0.0 1020118
11:00+13ссз2233100 0.0 1020322
14:00+16зюз243388 0.0 10181111
17:00+16зюз113375 0.0 10161382
20:00+13св23439 0.0 101634